Weather observations for the past three days for
Juneau, Dodge County Airport
Imperial (Metric)
Date Time (cdt) Wind (mph) Vis. (mi.) Weather Sky Cond. Temperature (ºF) Relative Humidity Wind Chill (°F) Heat Index (°F) Pressure Precipitation (in)
Air Dwpt 6 hour altimeter (in) sea level (mb) 1 hr 3 hr 6 hr
Max. Min.
14 21:35 SW 7 10.00 Mostly Cloudy SCT025 SCT034 BKN046 75.2 67.6 77% 76 29.87 0.0
14 21:15 SW 7 10.00 Thunderstorm in Vicinity SCT025 BKN031 BKN037 77.4 74.3 90% 79 29.85 0.0
14 20:55 Calm 7.00 Mostly Cloudy BKN030 78.1 74.3 88% 81 29.85 0.0
14 20:35 Calm 10.00 Thunderstorm SCT034 78.4 74.5 88% 81 29.85 0.0
14 20:15 S 5 10.00 Partly Cloudy SCT050 79.2 74.3 85% 83 29.85 0.0
14 19:55 S 3 10.00 Overcast OVC050 79.7 74.1 83% 84 29.86 0.0
14 19:35 S 5 10.00 Thunderstorm in Vicinity SCT030 OVC048 80.2 73.4 80% 85 29.86 0.0
14 19:15 S 5 10.00 Mostly Cloudy BKN048 79.7 73.8 82% 84 29.87 0.0
14 18:55 S 3 10.00 Mostly Cloudy BKN050 80.6 73.8 85.3 80.4 80% 85 29.88 0.0
14 18:35 S 5 10.00 Overcast SCT030 OVC050 81.1 73.2 77% 86 29.88 0.0
14 18:15 S 5 10.00 Overcast SCT030 OVC048 81.3 73.2 77% 86 29.89 0.0
14 17:55 S 6 10.00 Overcast SCT030 BKN040 OVC046 82 72.9 74% 87 29.89 0.0
14 17:35 SW 8 10.00 Overcast SCT030 OVC040 81.7 72.3 73% 87 29.89 0.0
14 17:15 S 9 10.00 Overcast BKN030 OVC040 82.4 72.3 72% 88 29.89 0.0
14 16:55 S 8 10.00 Mostly Cloudy SCT032 BKN039 82.2 71.4 70% 87 29.89 0.0
14 16:35 SW 8 10.00 Mostly Cloudy BKN035 83.7 72 68% 89 29.88 0.0
14 16:15 SW 10 10.00 Mostly Cloudy BKN031 84.4 71.6 66% 90 29.88 0.0
14 15:55 SW 9 10.00 Partly Cloudy SCT031 84.6 71.2 64% 90 29.88 0.0
14 15:35 S 7 10.00 Fair CLR 84.9 71.1 63% 90 29.88 0.0
14 15:15 SW 3 10.00 Fair CLR 84.2 69.8 62% 88 29.88 0.0
14 14:55 Calm 10.00 Fair CLR 83.7 70.2 64% 88 29.89 0.0
14 14:35 SW 7 10.00 Fair CLR 83.7 69.8 63% 88 29.9 0.0
14 14:15 SW 5 10.00 Fair CLR 82.4 68.5 63% 86 29.9 0.0
14 13:55 W 6 10.00 Fair CLR 82.6 69.3 64% 86 29.91 0.0
14 13:35 SW 9 10.00 Fair CLR 81.5 68 64% 84 29.92 0.0
14 13:15 SW 12 10.00 Fair CLR 81.3 68.2 64% 84 29.92 0.0
14 12:55 SW 12 G 17 10.00 Fair CLR 80.4 68.4 80.4 64.9 67% 83 29.93 0.0 0.08
14 12:35 SW 13 G 18 10.00 Fair CLR 79.2 67.8 68% 82 29.94 0.0
14 12:15 SW 10 10.00 Fair CLR 78.1 68.2 72% 80 29.94 0.0
14 11:55 SW 12 G 16 10.00 Fair CLR 77.2 67.1 71% 79 29.93 0.0
14 11:35 SW 12 10.00 Fair CLR 76.8 66.9 72% 79 29.94 0.0
14 11:15 S 12 G 18 10.00 Fair CLR 76.5 67.5 74% 78 29.94 0.0
14 10:55 SW 17 G 21 10.00 Fair CLR 75.9 67.1 74% 77 29.92 0.0
14 10:35 SW 14 10.00 Fair CLR 74.3 67.5 79% 29.91 0.0
14 10:15 SW 12 G 16 10.00 Fair CLR 73.8 67.1 80% 29.92 0.0
14 09:55 S 9 G 16 10.00 Fair CLR 71.2 66.4 85% 29.9 0.0 0.08
14 09:35 SW 10 10.00 Fair CLR 69.1 65.8 89% 29.9 0.0
14 09:15 S 9 10.00 Fair CLR 68.9 65.7 89% 29.9 0.0
14 08:55 S 8 10.00 Fair CLR 68.5 65.3 89% 29.88 0.0
14 08:35 S 9 10.00 Fair CLR 68.5 65.1 89% 29.88 0.0
14 08:15 SE 8 10.00 Partly Cloudy SCT048 SCT065 67.1 64.8 92% 29.87 0.0
14 07:55 E 15 10.00 Light Rain SCT030 SCT048 OVC090 65.5 64 95% 29.85 0.0 0.08
14 07:35 E 10 10.00 Rain SCT075 BKN090 OVC110 65.1 64.4 98% 29.95 0.0 0.06
14 07:15 Calm 10.00 Thunderstorm Light Rain SCT065 BKN090 OVC120 65.7 63.5 93% 29.99 0.0 0.02
14 06:55 Calm 10.00 Thunderstorm Rain SCT055 BKN070 OVC110 65.8 64 66.6 65.3 94% 30 0.0 0.16 0.16
14 06:35 NW 5 7.00 Thunderstorm Rain in Vicinity SCT008 BKN055 OVC065 66.2 65.3 97% 30.02 0.0 0.14
14 06:15 W 10 G 16 4.00 Thunderstorm Heavy Rain SCT005 OVC011 66.4 66 99% 30.03 0.0 0.06
14 05:55 Calm 10.00 Thunderstorm in Vicinity BKN009 OVC022 66.2 65.7 98% 29.99 0.0
14 05:35 Calm 10.00 Overcast BKN007 OVC024 65.8 65.3 98% 29.99 0.0
14 05:15 N 3 10.00 Mostly Cloudy SCT005 BKN070 65.7 65.3 99% 29.99 0.0
14 04:55 Calm 10.00 Partly Cloudy SCT070 65.3 64.8 98% 29.97 0.0
14 04:35 S 3 10.00 Fair CLR 65.3 64.8 98% 29.96 0.0
14 04:15 S 3 10.00 Fair CLR 65.3 64.8 98% 29.96 0.0
14 03:55 S 3 10.00 Fair CLR 65.8 65.3 98% 29.96 0.0
14 03:35 SW 9 10.00 Fair CLR 66.2 65.3 97% 29.97 0.0
14 03:15 SW 13 G 18 10.00 Fair CLR 66.6 65.3 96% 29.98 0.0
14 02:55 SW 9 10.00 Fair CLR 66.2 64.9 96% 29.97 0.0
14 02:35 SW 7 10.00 Fair CLR 66.2 64.6 95% 29.97 0.0
14 02:15 S 8 10.00 Fair CLR 66.4 65.1 96% 29.96 0.0
14 01:55 S 9 10.00 Fair CLR 66 65.3 98% 29.96 0.0
14 01:35 S 7 10.00 Partly Cloudy SCT080 66.2 64.8 95% 29.97 0.0
14 01:15 S 6 10.00 Partly Cloudy SCT080 66.2 65.3 97% 29.98 0.0
14 00:55 SE 7 10.00 Thunderstorm in Vicinity CLR 66.2 65.3 81.7 65.7 97% 29.99 0.0 0.71
14 00:35 S 7 10.00 Thunderstorm Light Rain SCT004 65.7 65.3 99% 30.02 0.0
14 00:15 S 8 10.00 Thunderstorm Light Rain SCT004 SCT110 65.7 65.3 99% 30.02 0.0
13 23:55 S 5 10.00 Thunderstorm Light Rain in Vicinity SCT055 SCT065 SCT110 66 65.5 98% 30.02 0.0 0.01
13 23:35 Calm 10.00 Rain SCT065 SCT080 BKN095 66.2 65.5 98% 30.03 0.0
13 23:15 S 5 10.00 Thunderstorm SCT005 SCT070 BKN120 66.2 65.5 98% 30.05 0.0
13 22:55 SW 7 10.00 Mostly Cloudy BKN005 BKN070 BKN120 66.2 65.8 99% 30.05 0.0 0.03
13 22:35 W 8 10.00 Thunderstorm Light Rain in Vicinity SCT007 SCT070 BKN100 66.6 66.2 99% 30.04 0.0 0.03
13 22:15 E 12 10.00 Thunderstorm Light Rain in Vicinity SCT070 OVC100 66.2 65.8 99% 29.99 0.0 0.02
13 21:55 E 9 10.00 Rain SCT070 OVC100 66.4 65.8 98% 30.05 0.0 0.09 0.67
13 21:35 E 7 10.00 Thunderstorm Rain in Vicinity SCT006 OVC100 66.4 66 99% 30.09 0.0 0.04
13 21:15 E 8 7.00 Thunderstorm Light Rain BKN006 BKN010 OVC075 67.1 66.6 98% 30.08 0.0 0.02
13 20:55 Calm 7.00 Thunderstorm Rain SCT006 BKN037 OVC060 67.1 66.6 98% 30.09 0.0 0.58
13 20:35 W 6 G 16 3.00 Thunderstorm Heavy Rain SCT006 BKN011 OVC031 67.1 66.6 98% 30.09 0.0 0.47
13 20:15 NW 13 G 32 5.00 Thunderstorm Rain SCT014 SCT025 BKN037 68.2 65.7 92% 30.07 0.0 0.01
13 19:55 S 10 10.00 Partly Cloudy SCT042 SCT048 SCT050 80.1 69.4 70% 83 30 0.0
13 19:35 S 7 10.00 Mostly Cloudy SCT045 BKN050 80.2 69.8 71% 83 30 0.0
13 19:15 S 10 10.00 Partly Cloudy SCT060 81 69.4 68% 84 30 0.0
13 18:55 S 10 10.00 Fair CLR 81.7 69.8 86 81.7 67% 85 30 0.0
13 18:35 S 10 G 18 10.00 Fair CLR 82.6 69.8 65% 86 30.01 0.0
13 18:15 S 14 G 18 10.00 Mostly Cloudy SCT038 BKN048 BKN060 84.7 70.2 62% 89 30 0.0
13 17:55 S 12 G 16 10.00 Mostly Cloudy BKN038 BKN050 82.9 70 65% 87 30.03 0.0
13 17:35 S 9 10.00 Mostly Cloudy SCT038 SCT044 BKN050 84.2 70.7 64% 89 30.03 0.0
13 17:15 SE 12 G 17 10.00 Mostly Cloudy SCT040 BKN050 85.1 70 61% 90 30.03 0.0
13 16:55 SE 10 10.00 Partly Cloudy SCT045 SCT050 84.7 70 61% 89 30.03 0.0
13 16:35 SE 10 G 16 10.00 Mostly Cloudy SCT042 BKN048 BKN050 85.8 70 59% 90 30.04 0.0
13 16:15 SE 14 10.00 Partly Cloudy SCT047 84.9 68.9 59% 89 30.05 0.0
13 15:55 S 10 10.00 Partly Cloudy SCT035 SCT045 84.4 69.3 61% 88 30.07 0.0
13 15:35 S 12 G 17 10.00 Fair CLR 85.5 70 60% 90 30.07 0.0
13 15:15 S 9 10.00 Fair CLR 84.7 69.8 61% 89 30.09 0.0
13 14:55 S 13 10.00 Partly Cloudy SCT032 SCT042 84.6 69.8 61% 89 30.09 0.0
13 14:35 SE 10 10.00 Mostly Cloudy SCT032 BKN038 BKN046 83.3 70.2 65% 88 30.1 0.0
13 14:15 S 12 G 16 10.00 Mostly Cloudy SCT032 SCT046 BKN065 83.5 70.2 64% 88 30.12 0.0
13 13:55 S 13 G 17 10.00 Mostly Cloudy SCT032 SCT042 BKN060 82.9 70 65% 87 30.12 0.0
13 13:35 S 13 G 16 10.00 Mostly Cloudy SCT032 BKN040 BKN060 82.9 69.6 64% 87 30.12 0.0
13 13:15 S 12 G 16 10.00 Partly Cloudy SCT030 SCT038 SCT075 83.3 69.4 63% 87 30.12 0.0
13 12:55 S 12 G 17 10.00 Partly Cloudy SCT030 SCT080 83.5 69.6 83.5 64.9 63% 87 30.12 0.0
13 12:35 S 10 10.00 Mostly Cloudy SCT030 BKN090 81.9 68.4 64% 85 30.14 0.0
13 12:15 SE 14 10.00 Mostly Cloudy BKN030 BKN036 BKN090 81.7 68 63% 85 30.13 0.0
13 11:55 S 9 G 16 10.00 Partly Cloudy SCT030 SCT038 SCT080 81.7 67.8 63% 84 30.14 0.0
13 11:40 S 12 10.00 Partly Cloudy SCT032 SCT041 SCT050 81.3 68 64% 84 30.14 0.0
13 11:15 S 7 10.00 Mostly Cloudy SCT032 BKN044 BKN049 79.7 67.8 67% 82 30.14 0.0
13 10:55 S 9 G 20 10.00 Mostly Cloudy SCT030 BKN050 81 67.1 63% 83 30.14 0.0
13 10:35 S 9 10.00 Partly Cloudy SCT030 79.9 67.1 65% 82 30.14 0.0
13 10:15 S 9 10.00 Fair CLR 79.7 67.1 65% 82 30.15 0.0
13 09:55 SE 8 10.00 Fair CLR 78.8 66.7 67% 81 30.15 0.0
13 09:35 S 9 10.00 Fair CLR 78.4 66.2 66% 80 30.16 0.0
13 09:15 SE 5 10.00 Fair CLR 76.3 65.8 70% 78 30.16 0.0
13 08:55 S 5 10.00 Fair CLR 75.4 66 73% 77 30.17 0.0
13 08:35 S 3 10.00 Fair CLR 74.1 65.3 74% 30.17 0.0
13 08:15 S 7 10.00 Thunderstorm in Vicinity CLR 72.9 64.6 75% 30.17 0.0
13 07:55 S 3 10.00 Fair CLR 71.1 63.5 77% 30.17 0.0
13 07:35 Calm 10.00 Fair CLR 68.9 62.6 80% 30.17 0.0
13 07:15 Calm 10.00 Fair CLR 67.1 62.8 86% 30.16 0.0
13 06:55 Calm 10.00 Fair CLR 64.9 61.7 67.1 62.2 89% 30.16 0.0
13 06:35 Calm 10.00 Fair CLR 63.7 61 91% 30.16 0.0
13 06:15 SE 3 10.00 Fair CLR 62.6 60.8 94% 30.16 0.0
13 05:55 Calm 10.00 Fair CLR 62.4 60.4 93% 30.16 0.0
13 05:35 Calm 10.00 Fair CLR 62.4 60.1 92% 30.16 0.0
13 05:15 Calm 10.00 Fair CLR 63.3 60.8 92% 30.16 0.0
13 04:55 Calm 10.00 Fair CLR 63.5 60.8 91% 30.16 0.0
13 04:35 Calm 10.00 Fair CLR 63.7 60.8 90% 30.15 0.0
13 04:15 Calm 10.00 Fair CLR 64.2 60.8 89% 30.15 0.0
13 03:55 Calm 10.00 Fair CLR 63.9 61 90% 30.15 0.0
13 03:35 Calm 10.00 Fair CLR 64.2 60.8 89% 30.15 0.0
13 03:15 Calm 10.00 Fair CLR 62.8 60.6 93% 30.15 0.0
13 02:55 Calm 10.00 Fair CLR 63 59.9 90% 30.15 0.0
13 02:35 Calm 10.00 Fair CLR 64 59.9 87% 30.14 0.0
13 02:15 Calm 10.00 Fair CLR 65.8 58.8 78% 30.15 0.0
13 01:55 Calm 10.00 Fair CLR 64.9 58.5 80% 30.15 0.0
13 01:35 Calm 10.00 Fair CLR 65.8 58.1 76% 30.15 0.0
13 01:15 E 3 10.00 Fair CLR 66.4 58.1 75% 30.15 0.0
13 00:55 Calm 10.00 Fair CLR 66.6 59.2 80.8 65.5 77% 30.16 0.0
13 00:35 Calm 10.00 Fair CLR 66.9 59.5 77% 30.15 0.0
13 00:15 Calm 10.00 Fair CLR 67.6 59.4 75% 30.16 0.0
12 23:55 Calm 10.00 Fair CLR 68 59 73% 30.16 0.0
12 23:35 Calm 10.00 Fair CLR 68.2 59.2 73% 30.15 0.0
12 23:15 Calm 10.00 Fair CLR 68 59.4 74% 30.14 0.0
12 22:55 S 3 10.00 Fair CLR 68.9 59.2 71% 30.14 0.0
12 22:35 S 3 10.00 Fair CLR 68.2 61 78% 30.14 0.0
12 22:15 Calm 10.00 Fair CLR 69.3 61 75% 30.14 0.0
12 21:55 S 6 10.00 Fair CLR 70.9 59.9 68% 30.14 0.0
12 21:35 SE 6 10.00 Fair CLR 72 60.4 67% 30.14 0.0
12 21:15 Calm 10.00 Fair CLR 72.3 61.5 69% 30.13 0.0
12 20:55 Calm 10.00 Fair CLR 73 62.6 70% 30.13 0.0
12 20:35 Calm 10.00 Fair CLR 74.8 62.6 66% 30.13 0.0
12 20:15 Calm 10.00 Fair CLR 75.2 61 61% 77 30.14 0.0
12 19:55 Calm 10.00 Fair CLR 78.4 59.4 52% 80 30.13 0.0
12 19:35 S 3 10.00 Fair CLR 79.5 59.7 51% 80 30.13 0.0
12 19:15 Calm 10.00 Fair CLR 80.1 59.7 50% 81 30.12 0.0
12 18:55 S 3 10.00 Fair CLR 81 59 83.5 79.5 47% 81 30.12 0.0
12 18:35 S 3 10.00 Fair CLR 81.7 58.5 45% 82 30.11 0.0
12 18:15 Calm 10.00 Fair CLR 82 56.7 42% 82 30.11 0.0
12 17:55 Calm 10.00 Fair CLR 82.8 57.2 42% 82 30.1 0.0
12 17:35 S 3 10.00 Fair CLR 82.8 57.7 43% 82 30.1 0.0
12 17:15 Calm 10.00 Fair CLR 82.8 57.7 43% 82 30.11 0.0
12 16:55 S 3 10.00 Partly Cloudy SCT055 82.9 58.5 43% 83 30.12 0.0
12 16:35 Calm 10.00 Fair CLR 83.1 57.9 42% 83 30.11 0.0
12 16:15 S 3 10.00 Fair CLR 83.1 58.8 44% 83 30.11 0.0
12 15:55 S 3 10.00 Fair CLR 82.9 59.9 46% 83 30.11 0.0
12 15:35 S 5 10.00 Fair CLR 82.4 60.3 47% 83 30.12 0.0
12 15:15 SW 3 10.00 Fair CLR 82.4 60.6 48% 83 30.12 0.0
12 14:55 S 6 10.00 Fair CLR 82.8 60.4 47% 83 30.13 0.0
12 14:35 Calm 10.00 Fair CLR 81.5 60.1 48% 82 30.13 0.0
12 14:15 SW 3 10.00 Fair CLR 82 59.5 47% 82 30.14 0.0
12 13:55 SE 3 10.00 Fair CLR 81.7 59.5 47% 82 30.14 0.0
12 13:35 Calm 10.00 Fair CLR 79.7 59.9 51% 81 30.15 0.0
12 13:15 SW 5 10.00 Partly Cloudy SCT047 SCT060 81 60.8 50% 82 30.15 0.0
12 12:55 S 3 10.00 Partly Cloudy SCT047 SCT060 81.1 60.4 81.1 64 49% 82 30.15 0.0
12 12:35 SW 5 10.00 Partly Cloudy SCT060 80.2 59.9 50% 81 30.16 0.0
12 12:15 Calm 10.00 Fair CLR 80.1 58.6 48% 81 30.15 0.0
12 11:55 Calm 10.00 Fair CLR 79.7 61 53% 81 30.16 0.0
12 11:35 Calm 10.00 Fair CLR 78.8 60.8 54% 80 30.16 0.0
12 11:15 Calm 10.00 Fair CLR 79.5 63.1 57% 81 30.16 0.0
12 10:55 Calm 10.00 Fair CLR 78.1 63.1 60% 80 30.16 0.0
12 10:35 Calm 10.00 Fair CLR 77 65.1 67% 79 30.16 0.0
12 10:15 SW 3 10.00 Fair CLR 76.3 64 66% 78 30.16 0.0
12 09:55 Calm 10.00 Fair CLR 75.6 64 68% 77 30.16 0.0
12 09:35 SW 3 10.00 Fair CLR 74.8 63.5 68% 30.17 0.0
12 09:15 Calm 10.00 Fair CLR 73.4 63.3 71% 30.16 0.0
12 08:55 Calm 10.00 Fair CLR 72.1 62.6 72% 30.16 0.0
12 08:35 Calm 10.00 Fair CLR 70.9 63.3 77% 30.17 0.0
12 08:15 Calm 10.00 Fair CLR 69.3 64 84% 30.16 0.0
12 07:50 Calm 10.00 Fair CLR 68.2 64 87% 30.16 0.0
12 07:35 Calm 10.00 Fair CLR 67.8 64.4 89% 30.15 0.0
12 07:15 Calm 10.00 Fair CLR 65.1 62.1 90% 30.15 0.0
12 06:55 Calm 10.00 Fair CLR 64.4 61.3 65.5 60.4 90% 30.14 0.0
12 06:35 Calm 10.00 Fair CLR 61.3 60.3 96% 30.14 0.0
12 06:15 Calm 10.00 Fair CLR 61.2 59.7 95% 30.14 0.0
12 05:55 Calm 10.00 Fair CLR 60.6 59.4 96% 30.13 0.0
12 05:40 Calm 10.00 Fair CLR 61.5 59.9 94% 30.13 0.0
12 05:15 Calm 10.00 Fair CLR 61.7 60.3 95% 30.13 0.0
12 04:55 Calm 10.00 Fair CLR 60.8 59.7 96% 30.12 0.0
12 04:35 SE 5 10.00 Fair CLR 60.4 59.4 96% 30.12 0.0
12 04:15 Calm 10.00 Fair CLR 61.7 59.5 93% 30.12 0.0
12 03:55 Calm 10.00 Fair CLR 61.7 59.9 94% 30.11 0.0
12 03:35 Calm 10.00 Fair CLR 62.1 59.7 92% 30.11 0.0
12 03:15 Calm 10.00 Fair CLR 62.2 59.4 90% 30.11 0.0
12 02:55 Calm 10.00 Fair CLR 63 59.9 90% 30.11 0.0
12 02:35 Calm 10.00 Fair CLR 62.1 59.9 93% 30.11 0.0
12 02:15 Calm 10.00 Fair CLR 61.7 59.7 93% 30.12 0.0
12 01:55 Calm 10.00 Fair CLR 62.1 59.9 93% 30.12 0.0
12 01:35 Calm 10.00 Fair CLR 64.9 58.5 80% 30.12 0.0
12 01:15 Calm 10.00 Fair CLR 64.2 59 83% 30.13 0.0
12 00:55 Calm 10.00 Fair CLR 64.9 59.4 77.2 64.4 82% 30.13 0.0
12 00:35 Calm 10.00 Fair CLR 64.6 59.7 84% 30.13 0.0
12 00:15 Calm 10.00 Fair CLR 64.9 59.9 84% 30.13 0.0
11 23:55 SE 3 10.00 Fair CLR 65.5 60.1 83% 30.13 0.0
11 23:35 Calm 10.00 Fair CLR 66.2 59.9 80% 30.12 0.0
11 23:15 Calm 10.00 Fair CLR 67.1 59.2 76% 30.12 0.0
11 22:55 SE 5 10.00 Fair CLR 67.3 59.4 76% 30.12 0.0
11 22:35 Calm 10.00 Fair CLR 67.1 60.1 78% 30.12 0.0
11 22:20 SE 5 10.00 Fair CLR 67.3 60.8 80% 30.12 0.0
11 21:55 Calm 10.00 Fair CLR 68.4 61 77% 30.12 0.0
Date Time (cdt) Wind (mph) Vis. (mi.) Weather Sky Cond. Air Dwpt Max. Min. Relative Humidity Wind Chill (°F) Heat Index (°F) altimeter (in) sea level (mb) 1 hr 3 hr 6 hr
6 hour
Temperature (ºF) Pressure Precipitation (in)